User: anonymous
Location: Unspecified
(0.0000°N, 0.0000°E)
Time: 09:04:06
(UTC+00:00)
Language:

A-11 Canister half - Orbit

View from above orbital plane
View from above orbital plane
View from above satellite
View from above satellite

Ground track
Ground track

The orbit data is extracted from the following two-line orbital elements,

1 00051U 60009C   14210.77455775 -.00000084  00000-0  00000+0 0  6243
2 00051 047.2128 157.8749 0104404 252.7171 189.3676 12.18236854402029
Epoch (UTC): 29 July 2014 18:35:21
Eccentricity: 0.0104404
inclination: 47.2128°
perigee height: 1517 km
apogee height: 1683 km
right ascension of ascending node: 157.8749°
argument of perigee: 252.7171°
revolutions per day: 12.18236854
mean anomaly at epoch: 189.3676°
orbit number at epoch: 40202

The dashed part of the orbit path shows where the satellite is in the earth's shadow,  

DLR